[[{"header":{"parameterUnit":"m.s-1","parameterCategory":2,"la1":30.2991,"la2":30.254,"lo1":-89.0895,"lo2":-89.0444,"dy":0.0017,"dx":0.0017,"nx":28,"ny":28,"refTime":"2024-07-19T21:00:00:Z","depth":"0","parameterNumber":2,"parameterNumberName":"U-component_of_CURRENTS"},"data":[0,0,0,0,0,0,0,0,0,0,0,0,0,0,0,0,0,0,0,0,0,0,0,0,0,0,0,0,0,0,0,0,0,0,0,0,0,0,0,0,0,0,0,0,0,0,0,0,0,0,0,0,0,0,0,0,0,0,-0.2285,-0.2285,0,-0.2293,-0.2292,-0.2292,-0.222,-0.2219,-0.2217,-0.2216,-0.2094,-0.2092,-0.209,0,0,0,0,0,0,0,0,0,0,0,0,0,-0.2104,-0.2108,-0.2285,-0.2285,-0.2286,-0.2293,-0.2292,-0.2292,-0.222,-0.2219,-0.2217,-0.2215,-0.2094,-0.2092,-0.209,0,0,0,0,0,0,0,0,0,0,0,0,0,-0.2149,-0.2109,-0.2285,-0.2256,-0.2254,-0.2293,-0.2292,-0.2292,-0.2221,-0.2219,-0.2216,-0.2214,-0.2095,-0.2092,-0.2089,-0.2115,0,0,-0.2081,-0.2079,0,0,0,0,0,0,0,0,-0.2147,-0.2155,-0.2259,-0.2258,-0.2256,-0.2258,-0.2184,-0.2228,-0.2221,-0.2227,-0.2216,-0.2213,-0.2142,-0.2135,-0.2135,-0.2109,-0.2104,-0.208,-0.2079,-0.2077,-0.2076,0,0,0,0,0,0,0,-0.2144,-0.2154,-0.2282,-0.226,-0.2258,-0.2207,-0.2211,-0.2191,-0.2189,-0.2226,-0.2223,-0.2234,-0.2139,-0.2138,-0.2131,-0.2102,-0.208,-0.2078,-0.2076,-0.2075,-0.2115,-0.2118,0,0,0,0,0,0,-0.2164,-0.2152,-0.2281,-0.2282,-0.2201,-0.2213,-0.2217,-0.2255,-0.2192,-0.2184,-0.2236,-0.2231,-0.2144,-0.2135,-0.2126,-0.217,-0.2077,-0.2075,-0.2073,-0.2112,-0.2116,-0.2119,0,0,0,0,0,0,-0.216,-0.2176,-0.2281,-0.2219,-0.223,-0.222,-0.2261,-0.2256,-0.2249,-0.2202,-0.2189,-0.2233,-0.2142,-0.213,-0.2119,-0.2164,-0.2073,-0.2071,-0.2109,-0.2113,-0.2117,-0.2246,0,0,0,0,0,0,-0.2156,-0.2176,-0.2195,-0.2223,-0.2235,-0.2319,-0.2264,-0.2258,-0.2262,-0.2255,-0.2196,-0.2183,-0.2139,-0.2124,-0.2117,-0.2158,-0.2068,-0.2105,-0.2111,-0.2116,-0.2238,-0.2254,-0.2268,0,0,0,0,0,-0.2149,-0.2192,-0.2196,-0.2211,-0.2268,-0.2322,-0.2323,-0.2301,-0.2264,-0.2281,-0.2238,-0.2184,-0.2152,-0.2124,-0.2114,-0.2156,-0.2103,-0.2109,-0.2115,-0.2232,-0.2251,-0.2267,0,0,0,0,0,0,-0.2103,-0.2191,-0.2195,-0.2256,-0.2293,-0.2312,-0.2319,-0.231,-0.2291,-0.2271,-0.2211,-0.2197,-0.2208,-0.217,-0.2141,-0.2187,-0.2123,-0.2128,-0.2215,-0.2232,-0.2247,-0.2218,-0.2066,0,0,0,0,0,-0.2113,-0.2174,-0.2235,-0.2278,-0.2303,-0.2311,-0.2322,-0.2322,-0.2318,-0.2306,-0.2273,-0.224,-0.2232,-0.2219,-0.2203,-0.2222,-0.2157,-0.2248,-0.2263,-0.2276,-0.2249,-0.2208,-0.2215,-0.2139,-0.2139,-0.2139,0,0,-0.21,-0.2158,-0.2187,-0.2273,-0.2291,-0.2351,-0.2311,-0.2346,-0.2381,-0.2297,-0.2314,-0.2286,-0.2249,-0.2275,-0.2277,-0.2244,-0.2271,-0.2284,-0.2294,-0.226,-0.2215,-0.2222,-0.2228,-0.2143,-0.2143,-0.2142,0,0,-0.2126,-0.2167,-0.2233,-0.2286,-0.2348,-0.2366,-0.2384,-0.242,-0.2417,-0.2448,-0.2399,-0.2396,-0.2383,-0.2371,-0.236,-0.2447,-0.235,-0.2452,-0.2498,-0.2461,-0.2466,-0.2469,-0.2418,-0.2416,-0.2459,-0.246,-0.246,0,-0.21,-0.2196,-0.2252,-0.2334,-0.2358,-0.2382,-0.2433,-0.2468,-0.2491,-0.247,-0.2468,-0.2435,-0.243,-0.243,-0.2481,-0.2478,-0.2424,-0.2433,-0.2477,-0.2478,-0.2479,-0.2426,-0.2421,-0.2467,-0.2466,-0.2465,-0.2464,0,-0.219,-0.2255,-0.2294,-0.241,-0.245,-0.2496,-0.2559,-0.258,-0.2575,-0.258,-0.2572,-0.2569,-0.2528,-0.2567,-0.2556,-0.257,-0.2519,-0.2499,-0.2424,-0.2494,-0.2435,-0.2427,-0.2477,-0.2474,-0.2472,-0.247,0,0,-0.2133,-0.232,-0.2324,-0.2361,-0.2481,-0.2506,-0.2583,-0.2614,-0.261,-0.2647,-0.262,-0.2667,-0.2625,-0.2612,-0.2602,-0.2603,-0.2613,-0.2565,-0.2559,-0.2499,-0.2506,-0.2431,-0.2415,-0.2589,-0.2588,-0.2587,-0.2469,0,-0.2159,-0.2287,-0.2387,-0.2463,-0.2506,-0.2563,-0.2621,-0.2654,-0.2663,-0.266,-0.2652,-0.2639,-0.2658,-0.2636,-0.2644,-0.261,-0.2595,-0.2645,-0.2457,-0.2451,-0.2363,-0.2405,-0.2255,-0.2132,-0.2461,-0.246,-0.2459,0,-0.2197,-0.2262,-0.2344,-0.244,-0.2463,-0.2518,-0.253,-0.2597,-0.2624,-0.2627,-0.2609,-0.2598,-0.2606,-0.2617,-0.2566,-0.2588,-0.2553,-0.2533,-0.2527,-0.2393,-0.2362,-0.2112,-0.2105,-0.211,-0.2446,-0.2447,-0.2448,0,-0.2061,-0.2219,-0.2254,-0.2297,-0.243,-0.2438,-0.2489,-0.2539,-0.256,-0.258,-0.2573,-0.2564,-0.255,-0.2513,-0.25,-0.2519,-0.2427,-0.2439,-0.2327,-0.232,-0.212,-0.2097,-0.2072,-0.2382,-0.2382,-0.2382,-0.2383,0,-0.2025,-0.2049,-0.2186,-0.2195,-0.2209,-0.2333,-0.2341,-0.2395,-0.2453,-0.2433,-0.2523,-0.248,-0.2525,-0.2486,-0.2465,-0.2362,-0.2384,-0.2316,-0.2281,-0.2166,-0.215,-0.2084,-0.2132,-0.2378,-0.2379,-0.238,-0.2381,0,-0.1882,-0.1985,-0.202,-0.2125,-0.2149,-0.2145,-0.2257,-0.2248,-0.2351,-0.2325,-0.2326,-0.2402,-0.2353,-0.2378,-0.2323,-0.2301,-0.2178,-0.2178,-0.2042,-0.1993,-0.19,-0.196,-0.187,-0.1821,-0.2023,-0.2021,-0.2018,0,-0.183,-0.1837,-0.1921,-0.1911,-0.1953,-0.1989,-0.1996,-0.2141,-0.2139,-0.2228,-0.2172,-0.2194,-0.2099,-0.2041,-0.2032,-0.1959,-0.2033,-0.1823,-0.1849,-0.186,-0.1901,-0.1967,-0.1938,-0.164,-0.1635,-0.1631,-0.1628,0,-0.17,-0.1731,-0.1751,-0.1725,-0.1719,-0.1738,-0.1766,-0.1767,-0.1895,-0.1893,-0.1832,-0.1773,-0.1766,-0.1637,-0.1651,-0.1622,-0.1781,-0.1734,-0.1766,-0.1612,-0.1654,-0.1599,-0.1767,-0.159,-0.1594,-0.1597,-0.1599,-0.16,-0.1583,-0.1561,-0.157,-0.1541,-0.1517,-0.1451,-0.1416,-0.1431,-0.1402,-0.1349,-0.1418,-0.124,-0.1288,-0.1268,-0.1296,-0.1361,-0.1466,-0.1345,-0.1418,-0.1486,-0.1437,-0.1528,-0.1312,-0.1314,-0.1316,-0.1317,-0.1319,0,-0.1445,-0.1429,-0.1383,-0.1326,-0.1221,-0.1275,-0.1229,-0.1165,-0.1046,-0.0941,-0.0849,-0.0665,-0.0691,-0.0847,-0.1036,-0.1052,-0.1076,-0.1095,-0.115,-0.1136,-0.1196,-0.1178,-0.0897,-0.0897,-0.0897,-0.0897,-0.0897,-0.0897,-0.1367,-0.129,-0.1276,-0.1062,-0.1006,-0.0851,-0.0801,-0.0696,-0.0598,-0.0336,-0.0134,-0.0021,-0.0248,-0.0779,-0.1011,-0.1003,-0.1042,-0.0984,-0.1089,-0.1144,-0.1174,-0.1203,-0.1197,-0.0924,-0.0924,-0.0931,-0.0932,-0.0932]},{"header":{"parameterUnit":"m.s-1","parameterCategory":2,"la1":30.2991,"la2":30.254,"lo1":-89.0895,"lo2":-89.0444,"dy":0.0017,"dx":0.0017,"nx":28,"ny":28,"refTime":"2024-07-19T21:00:00:Z","depth":"0","parameterNumber":3,"parameterNumberName":"V-component_of_CURRENTS"},"data":[0,0,0,0,0,0,0,0,0,0,0,0,0,0,0,0,0,0,0,0,0,0,0,0,0,0,0,0,0,0,0,0,0,0,0,0,0,0,0,0,0,0,0,0,0,0,0,0,0,0,0,0,0,0,0,0,0,0,-0.0025,-0.0024,0,0.0127,0.0129,0.013,0.0235,0.0236,0.0237,0.0237,0.036,0.0362,0.0365,0,0,0,0,0,0,0,0,0,0,0,0,0,-0.0152,-0.015,-0.0026,-0.0024,-0.0022,0.0127,0.0129,0.0131,0.0235,0.0236,0.0237,0.0238,0.0359,0.0362,0.0365,0,0,0,0,0,0,0,0,0,0,0,0,0,-0.0059,-0.015,-0.0026,0.0049,0.0057,0.0126,0.0129,0.0131,0.0234,0.0236,0.0237,0.0238,0.0358,0.0362,0.0365,0.0362,0,0,0.0376,0.0378,0,0,0,0,0,0,0,0,-0.0065,-0.0055,0.0036,0.0044,0.0053,0.0164,0.013,0.0207,0.0234,0.0166,0.0237,0.0239,0.0291,0.03,0.0325,0.0367,0.0373,0.0377,0.0379,0.038,0.0382,0,0,0,0,0,0,0,-0.0071,-0.006,0.0034,0.0038,0.0049,0.0101,0.0115,0.0145,0.0218,0.0172,0.018,0.0199,0.0296,0.0321,0.0329,0.0375,0.0377,0.038,0.0382,0.0384,0.0423,0.0422,0,0,0,0,0,0,-0.0093,-0.0067,0.0029,0.0038,-0.0002,0.0102,0.0117,0.0126,0.0219,0.0235,0.0197,0.0203,0.0314,0.0324,0.0333,0.0342,0.038,0.0384,0.0386,0.0424,0.0423,0.0422,0,0,0,0,0,0,-0.0097,-0.0087,0.0023,-0.0009,0.0009,0.0102,0.0112,0.0129,0.0158,0.0238,0.0254,0.021,0.0316,0.0328,0.0354,0.0347,0.0386,0.0389,0.0426,0.0424,0.0422,0.0354,0,0,0,0,0,0,-0.0101,-0.0089,-0.01,-0.0011,0.001,0.0052,0.0111,0.0131,0.0168,0.0177,0.0254,0.0267,0.0318,0.0348,0.0358,0.0353,0.0392,0.0427,0.0425,0.0423,0.0358,0.035,0.0344,0,0,0,0,0,-0.0106,-0.0131,-0.0102,-0.009,-0.0006,0.0052,0.0066,0.0138,0.0166,0.017,0.0221,0.0265,0.0342,0.035,0.0362,0.0358,0.0428,0.0426,0.0423,0.0361,0.0352,0.0344,0,0,0,0,0,0,-0.0195,-0.012,-0.0086,-0.0087,-0.0026,0.007,0.008,0.0126,0.0171,0.0177,0.0252,0.0267,0.0292,0.0322,0.033,0.036,0.0391,0.039,0.034,0.0332,0.0325,0.0302,0.0395,0,0,0,0,0,-0.022,-0.0214,-0.013,-0.013,-0.0102,-0.0014,0.0015,0.0063,0.0121,0.0144,0.0198,0.0246,0.0288,0.0307,0.0348,0.0357,0.0391,0.0359,0.0352,0.0346,0.0333,0.0367,0.0362,0.0413,0.0413,0.0413,0,0,-0.0254,-0.0211,-0.0207,-0.0147,-0.0091,-0.0074,0.0006,0.0044,0.0059,0.0146,0.017,0.0226,0.0285,0.0308,0.032,0.0333,0.0351,0.0343,0.0338,0.0328,0.0364,0.0359,0.0354,0.0412,0.0412,0.0412,0,0,-0.0315,-0.0277,-0.029,-0.0249,-0.0177,-0.0125,-0.012,-0.0034,0.0008,0.0038,0.0107,0.0152,0.0207,0.0257,0.0287,0.0258,0.0317,0.0268,0.0214,0.0247,0.0243,0.024,0.0288,0.029,0.0261,0.0261,0.0261,0,-0.0359,-0.0361,-0.0285,-0.0284,-0.0263,-0.0157,-0.0169,-0.0112,-0.0032,-0.0005,0.0029,0.0125,0.0184,0.022,0.0219,0.0244,0.0273,0.0246,0.0238,0.0236,0.0234,0.0284,0.0287,0.0257,0.0257,0.0258,0.0258,0,-0.0419,-0.0424,-0.0425,-0.0391,-0.0364,-0.0353,-0.0268,-0.0233,-0.0173,-0.0112,-0.0057,0.0029,0.0086,0.0115,0.0164,0.018,0.0209,0.0231,0.0261,0.0225,0.028,0.0285,0.0252,0.0253,0.0254,0.0255,0,0,-0.0501,-0.0478,-0.0476,-0.0485,-0.0422,-0.0405,-0.0378,-0.032,-0.0292,-0.0214,-0.0179,-0.0095,-0.0032,0.0004,0.0077,0.011,0.0143,0.0157,0.016,0.0207,0.0222,0.0289,0.0301,0.0161,0.0161,0.0161,0.027,0,-0.0566,-0.0605,-0.0573,-0.0609,-0.0617,-0.0534,-0.0522,-0.0457,-0.0367,-0.0305,-0.0201,-0.0141,-0.0078,-0.0038,0.0001,0.012,0.0148,0.0112,0.0247,0.0252,0.0317,0.0306,0.0394,0.0503,0.0275,0.0276,0.0276,0,-0.0627,-0.0644,-0.07,-0.0711,-0.0708,-0.0722,-0.0665,-0.064,-0.0519,-0.0449,-0.0364,-0.0256,-0.017,-0.0116,0.0029,0.0002,0.0092,0.0174,0.0181,0.0266,0.0326,0.0499,0.052,0.0668,0.0284,0.0283,0.0283,0,-0.0696,-0.0732,-0.0786,-0.0787,-0.078,-0.0794,-0.0788,-0.0691,-0.0671,-0.0531,-0.0486,-0.0355,-0.0274,-0.0164,0.0034,0.0026,0.0199,0.0213,0.035,0.0357,0.0471,0.0488,0.0653,0.0283,0.0282,0.0282,0.0282,0,-0.0763,-0.0803,-0.0831,-0.0852,-0.0923,-0.0888,-0.0923,-0.0861,-0.0796,-0.0775,-0.0581,-0.0521,-0.0285,-0.0132,0.0008,0.021,0.0179,0.034,0.0386,0.0451,0.0464,0.0629,0.0687,0.0286,0.0285,0.0285,0.0284,0,-0.081,-0.0829,-0.0895,-0.0931,-0.0956,-0.1002,-0.1049,-0.1044,-0.0966,-0.0925,-0.0889,-0.0648,-0.0404,-0.0155,0.0083,0.0192,0.0485,0.0439,0.0516,0.0567,0.0817,0.0866,0.1051,0.1165,0.0598,0.06,0.0602,0,-0.0831,-0.0871,-0.0957,-0.1002,-0.1027,-0.1101,-0.1137,-0.1128,-0.112,-0.1009,-0.0985,-0.0722,-0.0511,-0.0104,0.0216,0.0516,0.0616,0.0705,0.0697,0.0846,0.0934,0.0946,0.103,0.0832,0.0836,0.0839,0.0841,0,-0.0863,-0.0898,-0.0941,-0.1042,-0.1113,-0.1194,-0.1249,-0.1286,-0.1249,-0.1208,-0.1085,-0.0918,-0.0438,0.0024,0.0464,0.0608,0.0847,0.0772,0.0911,0.1115,0.1156,0.1284,0.075,0.0868,0.0865,0.0863,0.0862,0.086,-0.0869,-0.0916,-0.0974,-0.1065,-0.114,-0.1213,-0.1261,-0.1292,-0.1308,-0.1201,-0.1149,-0.088,-0.0182,0.0504,0.0671,0.1152,0.1079,0.1247,0.1293,0.1288,0.1406,0.0931,0.1102,0.1101,0.1099,0.1099,0.1098,0,-0.0865,-0.091,-0.0988,-0.1077,-0.1131,-0.1189,-0.1263,-0.1261,-0.1243,-0.1181,-0.1073,-0.0464,0.0208,0.0794,0.1535,0.1685,0.1693,0.1738,0.1787,0.1846,0.143,0.1449,0.1721,0.1721,0.1721,0.172,0.172,0.172,-0.086,-0.0916,-0.0959,-0.1026,-0.1081,-0.1129,-0.1158,-0.1138,-0.1093,-0.0859,-0.0617,-0.0411,0.0461,0.1499,0.2111,0.2136,0.2292,0.2246,0.2313,0.2035,0.1992,0.1951,0.1983,0.2363,0.2364,0.2741,0.2745,0.2748]}],[{"header":{"parameterUnit":"m.s-1","parameterCategory":2,"la1":30.2991,"la2":30.254,"lo1":-89.0895,"lo2":-89.0444,"dy":0.0017,"dx":0.0017,"nx":28,"ny":28,"refTime":"2024-07-19T21:00:00:Z","depth":"2","parameterNumber":2,"parameterNumberName":"U-component_of_CURRENTS"},"data":[0,0,0,0,0,0,0,0,0,0,0,0,0,0,0,0,0,0,0,0,0,0,0,0,0,0,0,0,0,0,0,0,0,0,0,0,0,0,0,0,0,0,0,0,0,0,0,0,0,0,0,0,0,0,0,0,0,0,-0.2073,-0.2074,0,-0.209,-0.209,-0.2089,-0.2039,-0.2038,-0.2037,-0.2037,-0.2135,-0.2139,-0.2142,0,0,0,0,0,0,0,0,0,0,0,0,0,-0.2003,-0.2004,-0.2073,-0.2074,-0.2075,-0.209,-0.209,-0.2089,-0.2039,-0.2038,-0.2037,-0.2036,-0.2134,-0.2138,-0.2142,0,0,0,0,0,0,0,0,0,0,0,0,0,-0.2021,-0.2005,-0.2073,-0.2058,-0.2057,-0.209,-0.209,-0.2089,-0.204,-0.2038,-0.2037,-0.2036,-0.2133,-0.2138,-0.2143,-0.22,0,0,-0.2159,-0.2161,0,0,0,0,0,0,0,0,-0.202,-0.2023,-0.2059,-0.2059,-0.2058,-0.2068,-0.2102,-0.2133,-0.204,-0.2038,-0.2037,-0.2035,-0.2126,-0.2132,-0.2126,-0.2205,-0.2209,-0.2159,-0.2162,-0.2164,-0.2166,0,0,0,0,0,0,0,-0.2019,-0.2022,-0.2072,-0.206,-0.206,-0.2052,-0.2052,-0.2106,-0.2085,-0.2038,-0.2036,-0.2051,-0.2125,-0.2121,-0.2128,-0.221,-0.2159,-0.2163,-0.2167,-0.2169,-0.2353,-0.2354,0,0,0,0,0,0,-0.2034,-0.2021,-0.2072,-0.2074,-0.2044,-0.2055,-0.2055,-0.206,-0.2082,-0.2086,-0.2052,-0.2049,-0.2113,-0.2122,-0.2132,-0.2195,-0.2164,-0.2169,-0.2172,-0.2351,-0.2353,-0.2355,0,0,0,0,0,0,-0.2032,-0.2038,-0.2071,-0.2054,-0.2059,-0.2058,-0.2064,-0.2061,-0.2065,-0.2093,-0.2097,-0.206,-0.2112,-0.2125,-0.2185,-0.2199,-0.2171,-0.2176,-0.2349,-0.2352,-0.2354,-0.2327,0,0,0,0,0,0,-0.2029,-0.2036,-0.2047,-0.2055,-0.2061,-0.2102,-0.2066,-0.2063,-0.2079,-0.2074,-0.2103,-0.2109,-0.2112,-0.2177,-0.219,-0.2206,-0.218,-0.2346,-0.235,-0.2353,-0.2325,-0.2328,-0.2331,0,0,0,0,0,-0.2027,-0.2038,-0.2047,-0.2054,-0.2074,-0.2105,-0.2106,-0.2096,-0.2081,-0.2092,-0.2106,-0.2108,-0.2208,-0.2183,-0.2198,-0.2215,-0.2345,-0.2349,-0.2353,-0.2324,-0.2328,-0.2331,0,0,0,0,0,0,-0.2011,-0.2035,-0.2044,-0.2063,-0.2093,-0.2099,-0.2106,-0.2111,-0.2128,-0.2123,-0.2137,-0.2146,-0.2198,-0.2228,-0.22,-0.2282,-0.2276,-0.2283,-0.2249,-0.2253,-0.2256,-0.2249,-0.2184,0,0,0,0,0,-0.2019,-0.2036,-0.2064,-0.2087,-0.2095,-0.2107,-0.2119,-0.2122,-0.2141,-0.2144,-0.217,-0.22,-0.2227,-0.2256,-0.2288,-0.2349,-0.2341,-0.2372,-0.2374,-0.2376,-0.2384,-0.238,-0.2382,-0.2368,-0.2368,-0.2368,0,0,-0.2022,-0.2042,-0.2052,-0.2087,-0.2098,-0.212,-0.2108,-0.2133,-0.2157,-0.216,-0.2199,-0.2215,-0.2246,-0.2289,-0.2317,-0.2316,-0.2373,-0.2381,-0.2382,-0.2389,-0.2384,-0.2385,-0.2386,-0.2371,-0.2371,-0.237,0,0,-0.2036,-0.2052,-0.2065,-0.2091,-0.2128,-0.2139,-0.2154,-0.2178,-0.2186,-0.224,-0.223,-0.2256,-0.2326,-0.2329,-0.2342,-0.2395,-0.2381,-0.2416,-0.2429,-0.2425,-0.2425,-0.2425,-0.2389,-0.2386,-0.2423,-0.2423,-0.2423,0,-0.2048,-0.2057,-0.2079,-0.2101,-0.2124,-0.2151,-0.2173,-0.2194,-0.2242,-0.2263,-0.2256,-0.232,-0.2337,-0.237,-0.2373,-0.2396,-0.2385,-0.2404,-0.2424,-0.2424,-0.2424,-0.2388,-0.2385,-0.2422,-0.2422,-0.2422,-0.2422,0,-0.2057,-0.2078,-0.2087,-0.2123,-0.2158,-0.2181,-0.2222,-0.226,-0.228,-0.2302,-0.2348,-0.2359,-0.2393,-0.2401,-0.2399,-0.2419,-0.2405,-0.2415,-0.2402,-0.2423,-0.2384,-0.2381,-0.2421,-0.2421,-0.2421,-0.2421,0,0,-0.2054,-0.2086,-0.2088,-0.2109,-0.2167,-0.2194,-0.2251,-0.2302,-0.2332,-0.2371,-0.24,-0.2427,-0.2426,-0.2442,-0.244,-0.2437,-0.2405,-0.2429,-0.2429,-0.2368,-0.2373,-0.2291,-0.2279,-0.2415,-0.2415,-0.2416,-0.2334,0,-0.2056,-0.2074,-0.2105,-0.2149,-0.2163,-0.2223,-0.2275,-0.2335,-0.2375,-0.2414,-0.2426,-0.2449,-0.2444,-0.2444,-0.2443,-0.2421,-0.2403,-0.2425,-0.2385,-0.2384,-0.2287,-0.2275,-0.2095,-0.2002,-0.2331,-0.233,-0.233,0,-0.2054,-0.2062,-0.2078,-0.2153,-0.2166,-0.2205,-0.2288,-0.2337,-0.2407,-0.2439,-0.247,-0.248,-0.2482,-0.2467,-0.2437,-0.2453,-0.2414,-0.2389,-0.2385,-0.232,-0.2297,-0.2044,-0.1984,-0.2325,-0.2325,-0.2326,-0.2326,0,-0.2007,-0.2061,-0.2064,-0.2084,-0.2159,-0.2195,-0.2246,-0.2334,-0.2375,-0.2437,-0.2463,-0.2486,-0.2479,-0.2456,-0.2408,-0.2424,-0.2355,-0.2371,-0.2257,-0.225,-0.2095,-0.2074,-0.2341,-0.2341,-0.2341,-0.2341,-0.2342,0,-0.1982,-0.1992,-0.2038,-0.2028,-0.2069,-0.2151,-0.2203,-0.2269,-0.2346,-0.2375,-0.2449,-0.2462,-0.2478,-0.2449,-0.2406,-0.2308,-0.2351,-0.2248,-0.2225,-0.2079,-0.2059,-0.2354,-0.2356,-0.2338,-0.2339,-0.234,-0.234,0,-0.191,-0.1937,-0.1952,-0.201,-0.2036,-0.2059,-0.216,-0.219,-0.2287,-0.2321,-0.2336,-0.2428,-0.2387,-0.2372,-0.2319,-0.2286,-0.2211,-0.2164,-0.1975,-0.1933,-0.2108,-0.2111,-0.2035,-0.2031,-0.2028,-0.2026,-0.2024,0,-0.1876,-0.1865,-0.1902,-0.191,-0.1926,-0.1979,-0.201,-0.2129,-0.216,-0.2283,-0.2276,-0.2296,-0.2274,-0.2184,-0.2091,-0.1981,-0.2088,-0.1801,-0.1808,-0.2092,-0.2078,-0.2086,-0.2092,-0.1578,-0.1572,-0.1568,-0.1564,0,-0.18,-0.1803,-0.1788,-0.1796,-0.182,-0.1855,-0.1907,-0.1931,-0.2052,-0.2078,-0.211,-0.2112,-0.2055,-0.1885,-0.1784,-0.1709,-0.1809,-0.1705,-0.2036,-0.1696,-0.1658,-0.1646,-0.1668,-0.1523,-0.1527,-0.153,-0.1532,-0.1534,-0.1744,-0.1704,-0.1679,-0.1684,-0.1708,-0.1709,-0.17,-0.1755,-0.1767,-0.1779,-0.1881,-0.1818,-0.1833,-0.1567,-0.1464,-0.1373,-0.1504,-0.1467,-0.1482,-0.1502,-0.1477,-0.1437,-0.1253,-0.1256,-0.1258,-0.126,-0.1261,0,-0.1665,-0.1606,-0.1584,-0.1563,-0.1532,-0.159,-0.1609,-0.1578,-0.1532,-0.1539,-0.1533,-0.1377,-0.1268,-0.1262,-0.1041,-0.1022,-0.1023,-0.1002,-0.1007,-0.1046,-0.1082,-0.1038,-0.0696,-0.0695,-0.0694,-0.0693,0,0,-0.1614,-0.1519,-0.1477,-0.1388,-0.1378,-0.1306,-0.129,-0.1257,-0.1251,-0.1135,-0.1071,-0.1187,-0.1227,-0.0973,-0.0912,-0.0768,-0.0908,-0.0725,-0.1171,-0.1215,-0.1249,-0.1332,-0.1305,0,0,0,0,0]},{"header":{"parameterUnit":"m.s-1","parameterCategory":2,"la1":30.2991,"la2":30.254,"lo1":-89.0895,"lo2":-89.0444,"dy":0.0017,"dx":0.0017,"nx":28,"ny":28,"refTime":"2024-07-19T21:00:00:Z","depth":"2","parameterNumber":3,"parameterNumberName":"V-component_of_CURRENTS"},"data":[0,0,0,0,0,0,0,0,0,0,0,0,0,0,0,0,0,0,0,0,0,0,0,0,0,0,0,0,0,0,0,0,0,0,0,0,0,0,0,0,0,0,0,0,0,0,0,0,0,0,0,0,0,0,0,0,0,0,-0.0162,-0.0161,0,-0.0107,-0.0107,-0.0106,-0.008,-0.008,-0.008,-0.008,0.0037,0.004,0.0043,0,0,0,0,0,0,0,0,0,0,0,0,0,-0.0187,-0.0187,-0.0162,-0.0161,-0.016,-0.0107,-0.0107,-0.0106,-0.008,-0.008,-0.008,-0.008,0.0036,0.004,0.0043,0,0,0,0,0,0,0,0,0,0,0,0,0,-0.016,-0.0187,-0.0162,-0.014,-0.0137,-0.0108,-0.0107,-0.0106,-0.008,-0.008,-0.008,-0.008,0.0035,0.004,0.0044,0.0068,0,0,0.0058,0.006,0,0,0,0,0,0,0,0,-0.0162,-0.016,-0.0144,-0.0141,-0.0138,-0.0099,-0.0073,-0.0044,-0.008,-0.0103,-0.008,-0.008,-0.0002,0.0006,0.0013,0.0074,0.0079,0.0058,0.0061,0.0063,0.0064,0,0,0,0,0,0,0,-0.0164,-0.0162,-0.0142,-0.0143,-0.014,-0.0113,-0.011,-0.0067,-0.0054,-0.0101,-0.0099,-0.0091,0.0,0.0008,0.0016,0.0081,0.0058,0.0062,0.0065,0.0067,0.018,0.018,0,0,0,0,0,0,-0.0171,-0.0164,-0.0144,-0.014,-0.0148,-0.0113,-0.0109,-0.0113,-0.0056,-0.0047,-0.0091,-0.009,0.0,0.0011,0.002,0.0053,0.0063,0.0067,0.007,0.0179,0.018,0.018,0,0,0,0,0,0,-0.0172,-0.017,-0.0146,-0.0149,-0.0143,-0.0113,-0.0117,-0.0112,-0.0101,-0.0048,-0.0039,-0.0084,0.0001,0.0014,0.0053,0.0058,0.0069,0.0073,0.0179,0.018,0.018,0.012,0,0,0,0,0,0,-0.0173,-0.0171,-0.0178,-0.015,-0.0144,-0.0134,-0.0117,-0.0111,-0.0095,-0.0093,-0.0039,-0.0029,0.0002,0.0046,0.0058,0.0065,0.0077,0.0179,0.0179,0.018,0.0121,0.0118,0.0115,0,0,0,0,0,-0.0175,-0.019,-0.0179,-0.0176,-0.0154,-0.0134,-0.0129,-0.0107,-0.0095,-0.0096,-0.0059,-0.003,0.0058,0.005,0.0064,0.0072,0.0178,0.0179,0.018,0.0123,0.0119,0.0115,0,0,0,0,0,0,-0.0203,-0.0187,-0.0175,-0.0184,-0.0161,-0.013,-0.0129,-0.0108,-0.008,-0.0077,-0.0027,-0.0014,0.0017,0.0057,0.0047,0.0107,0.0124,0.0128,0.0076,0.0073,0.007,0.0059,0.008,0,0,0,0,0,-0.0211,-0.0221,-0.0192,-0.0199,-0.019,-0.0157,-0.0146,-0.013,-0.01,-0.0089,-0.0048,-0.0004,0.0031,0.006,0.0093,0.0133,0.017,0.0149,0.0146,0.0143,0.0144,0.0198,0.02,0.0182,0.0182,0.0182,0,0,-0.0225,-0.0216,-0.0221,-0.0205,-0.0187,-0.0181,-0.0151,-0.014,-0.013,-0.0078,-0.0053,-0.0018,0.0036,0.0068,0.0088,0.0104,0.0167,0.0144,0.014,0.0143,0.0199,0.0201,0.0202,0.0183,0.0183,0.0183,0,0,-0.0258,-0.0247,-0.0267,-0.0248,-0.0223,-0.0202,-0.0198,-0.0164,-0.0146,-0.0117,-0.0081,-0.004,0.0017,0.0058,0.0086,0.0092,0.0139,0.0104,0.0092,0.0145,0.0147,0.0149,0.0191,0.0197,0.0114,0.0114,0.0114,0,-0.0275,-0.029,-0.0266,-0.027,-0.0258,-0.0213,-0.022,-0.0193,-0.0149,-0.0131,-0.0118,-0.0031,0.0013,0.0064,0.0061,0.0086,0.0117,0.0098,0.014,0.0143,0.0146,0.0189,0.0197,0.0111,0.0111,0.0111,0.0112,0,-0.0314,-0.0321,-0.0328,-0.0321,-0.0305,-0.0302,-0.026,-0.0241,-0.021,-0.0176,-0.0127,-0.0065,-0.0011,0.0011,0.0038,0.0085,0.0099,0.0117,0.0144,0.0144,0.019,0.0199,0.0107,0.0108,0.0109,0.0109,0,0,-0.0367,-0.0361,-0.0361,-0.0367,-0.033,-0.0325,-0.0305,-0.0273,-0.0261,-0.0201,-0.0173,-0.0103,-0.0063,-0.0028,0.0022,0.0076,0.0122,0.0102,0.0106,0.0135,0.023,0.0268,0.0282,0.0143,0.0144,0.0145,0.025,0,-0.0404,-0.0429,-0.0411,-0.0426,-0.0433,-0.0386,-0.0373,-0.0334,-0.0291,-0.0251,-0.0165,-0.0124,-0.0078,-0.0054,0.0008,0.0092,0.0144,0.0092,0.0234,0.0239,0.0266,0.0294,0.0282,0.0377,0.0259,0.0261,0.0262,0,-0.0452,-0.0457,-0.0482,-0.0482,-0.0482,-0.048,-0.0452,-0.0435,-0.036,-0.0327,-0.0256,-0.0189,-0.0094,-0.0063,0.0093,0.0055,0.0133,0.0202,0.0208,0.0273,0.0295,0.0362,0.0398,0.0278,0.0276,0.0275,0.0274,0,-0.0501,-0.0514,-0.0538,-0.0532,-0.0516,-0.052,-0.0511,-0.0457,-0.0443,-0.0369,-0.0346,-0.0225,-0.0156,-0.0043,0.011,0.0097,0.028,0.0283,0.0394,0.0397,0.0431,0.0436,0.0385,0.0385,0.0385,0.0385,0.0384,0,-0.0547,-0.0567,-0.0565,-0.0571,-0.0602,-0.0573,-0.0587,-0.0562,-0.0512,-0.0485,-0.0389,-0.0322,-0.0148,-0.0016,0.0102,0.0288,0.028,0.0401,0.0434,0.041,0.0411,0.036,0.0356,0.0389,0.0388,0.0387,0.0386,0,-0.0592,-0.0592,-0.0622,-0.062,-0.0627,-0.0647,-0.0647,-0.0649,-0.0603,-0.0562,-0.0538,-0.038,-0.0193,-0.0021,0.019,0.0288,0.0448,0.051,0.0468,0.0495,0.0526,0.0517,0.064,0.0642,0.0644,0.0646,0.0647,0,-0.0619,-0.0639,-0.0661,-0.0686,-0.0688,-0.0712,-0.0726,-0.0697,-0.0688,-0.058,-0.0555,-0.0368,-0.0186,0.0132,0.0331,0.0552,0.0531,0.0639,0.062,0.0536,0.0556,0.0544,0.0533,0.0638,0.064,0.0641,0.0641,0,-0.0662,-0.067,-0.0687,-0.0736,-0.0766,-0.0797,-0.0808,-0.0811,-0.0755,-0.0686,-0.0527,-0.0363,-0.0041,0.0246,0.0507,0.0617,0.0602,0.0668,0.0613,0.0572,0.0543,0.0559,0.0547,0.0651,0.065,0.0649,0.0648,0.0648,-0.0695,-0.0719,-0.0744,-0.0789,-0.0829,-0.0861,-0.0874,-0.085,-0.0801,-0.0639,-0.0469,-0.0169,0.0043,0.0484,0.0625,0.0733,0.0731,0.075,0.0743,0.0736,0.0714,0.069,0.0821,0.0821,0.0821,0.0821,0.0821,0,-0.0727,-0.0752,-0.0797,-0.0848,-0.0889,-0.0896,-0.091,-0.0876,-0.0793,-0.0531,-0.0297,0.0006,0.0325,0.0523,0.0728,0.0836,0.0795,0.0826,0.0756,0.0747,0.074,0.0714,0.0822,0.0822,0.0822,0.0823,0,0,-0.0747,-0.0787,-0.0802,-0.0879,-0.0914,-0.0937,-0.0935,-0.0855,-0.0667,-0.0396,-0.0128,0.0223,0.044,0.0571,0.0684,0.0782,0.0736,0.0774,0.0766,0.0665,0.0656,0.0693,0.0645,0,0,0,0,0]}],[{"header":{"parameterUnit":"m.s-1","parameterCategory":2,"la1":30.2991,"la2":30.254,"lo1":-89.0895,"lo2":-89.0444,"dy":0.0017,"dx":0.0017,"nx":28,"ny":28,"refTime":"2024-07-19T21:00:00:Z","depth":"4","parameterNumber":2,"parameterNumberName":"U-component_of_CURRENTS"},"data":[0,0,0,0,0,0,0,0,0,0,0,0,0,0,0,0,0,0,0,0,0,0,0,0,0,0,0,0,0,0,0,0,0,0,0,0,0,0,0,0,0,0,0,0,0,0,0,0,0,0,0,0,0,0,0,0,0,0,-0.1425,-0.1426,0,-0.1506,-0.1507,-0.1507,-0.1546,-0.1546,-0.1546,-0.1546,-0.1636,-0.1639,-0.1641,0,0,0,0,0,0,0,0,0,0,0,0,0,-0.1331,-0.1332,-0.1425,-0.1426,-0.1427,-0.1506,-0.1507,-0.1508,-0.1546,-0.1546,-0.1546,-0.1546,-0.1636,-0.1639,-0.1641,0,0,0,0,0,0,0,0,0,0,0,0,0,-0.1387,-0.1333,-0.1425,-0.1456,-0.146,-0.1505,-0.1507,-0.1508,-0.1546,-0.1546,-0.1546,-0.1546,-0.1635,-0.1638,-0.1642,-0.1663,0,0,-0.1653,-0.1654,0,0,0,0,0,0,0,0,-0.1384,-0.139,-0.1451,-0.1454,-0.1459,-0.1517,-0.1507,-0.156,-0.1546,-0.1513,-0.1546,-0.1547,-0.1598,-0.1604,-0.1618,-0.1667,-0.1671,-0.1653,-0.1655,-0.1657,-0.1658,0,0,0,0,0,0,0,-0.138,-0.1387,-0.1456,-0.1452,-0.1457,-0.1476,-0.1483,-0.1517,-0.1554,-0.1516,-0.1519,-0.1529,-0.16,-0.1615,-0.1621,-0.1672,-0.1653,-0.1656,-0.1658,-0.166,-0.1797,-0.1798,0,0,0,0,0,0,-0.137,-0.1384,-0.1454,-0.1459,-0.1421,-0.1477,-0.1486,-0.1497,-0.1553,-0.1562,-0.1529,-0.153,-0.1609,-0.1617,-0.1624,-0.1709,-0.1657,-0.166,-0.1662,-0.1795,-0.1797,-0.1799,0,0,0,0,0,0,-0.1368,-0.1376,-0.1451,-0.1423,-0.1434,-0.1479,-0.1491,-0.1499,-0.1537,-0.1563,-0.1572,-0.1561,-0.1609,-0.1619,-0.168,-0.171,-0.1661,-0.1665,-0.1794,-0.1796,-0.1798,-0.1842,0,0,0,0,0,0,-0.1365,-0.1374,-0.1391,-0.1423,-0.1436,-0.1493,-0.1492,-0.1501,-0.1542,-0.1545,-0.1594,-0.1601,-0.161,-0.1675,-0.1684,-0.1714,-0.1667,-0.1792,-0.1795,-0.1797,-0.1838,-0.1845,-0.1851,0,0,0,0,0,-0.1361,-0.1378,-0.1391,-0.14,-0.1453,-0.1494,-0.1503,-0.1534,-0.1543,-0.1567,-0.1604,-0.16,-0.1699,-0.168,-0.169,-0.1721,-0.179,-0.1794,-0.1797,-0.1835,-0.1844,-0.1851,0,0,0,0,0,0,-0.135,-0.1385,-0.1399,-0.1428,-0.1466,-0.1501,-0.1528,-0.1549,-0.1596,-0.1607,-0.1627,-0.1638,-0.1696,-0.1708,-0.1686,-0.1769,-0.1741,-0.1747,-0.1767,-0.1775,-0.1782,-0.1782,-0.167,0,0,0,0,0,-0.1354,-0.1375,-0.1414,-0.1441,-0.1461,-0.15,-0.1525,-0.1549,-0.1589,-0.161,-0.1645,-0.1682,-0.1714,-0.1745,-0.1772,-0.1829,-0.1814,-0.1853,-0.186,-0.1865,-0.1873,-0.1878,-0.1885,-0.181,-0.181,-0.181,0,0,-0.1358,-0.138,-0.1394,-0.144,-0.1472,-0.1514,-0.1516,-0.1563,-0.1606,-0.1613,-0.1687,-0.1706,-0.1733,-0.1788,-0.1816,-0.1807,-0.1876,-0.1869,-0.1873,-0.1879,-0.1882,-0.1889,-0.1896,-0.1812,-0.1812,-0.1811,0,0,-0.1371,-0.1398,-0.1421,-0.1457,-0.1509,-0.1537,-0.1556,-0.161,-0.1643,-0.1711,-0.172,-0.1762,-0.1825,-0.1847,-0.1865,-0.1927,-0.1903,-0.1936,-0.1981,-0.1986,-0.1992,-0.1997,-0.1972,-0.1974,-0.1947,-0.1947,-0.1948,0,-0.1376,-0.141,-0.1437,-0.1473,-0.1511,-0.1551,-0.1596,-0.1637,-0.1707,-0.1742,-0.1742,-0.1831,-0.1851,-0.1912,-0.1933,-0.1941,-0.1929,-0.1948,-0.1993,-0.1998,-0.2002,-0.1975,-0.1978,-0.195,-0.195,-0.1949,-0.1949,0,-0.1402,-0.1444,-0.1465,-0.1523,-0.1568,-0.1614,-0.1672,-0.1727,-0.177,-0.1806,-0.188,-0.1906,-0.1957,-0.1969,-0.1974,-0.2023,-0.1998,-0.1991,-0.1969,-0.2012,-0.1981,-0.1983,-0.1954,-0.1953,-0.1952,-0.1951,0,0,-0.1372,-0.1464,-0.1474,-0.1517,-0.1602,-0.1639,-0.1721,-0.1799,-0.1853,-0.1911,-0.1972,-0.2028,-0.2036,-0.2057,-0.2064,-0.2077,-0.209,-0.2056,-0.2055,-0.2023,-0.2082,-0.1936,-0.1923,-0.2091,-0.2092,-0.2093,-0.2042,0,-0.1388,-0.146,-0.1508,-0.1593,-0.1638,-0.1712,-0.1783,-0.1861,-0.1922,-0.1989,-0.2023,-0.2076,-0.2071,-0.2093,-0.211,-0.2097,-0.2099,-0.2104,-0.2053,-0.2051,-0.191,-0.1922,-0.2096,-0.2043,-0.2043,-0.2043,-0.2043,0,-0.1387,-0.1444,-0.1525,-0.1635,-0.1663,-0.1724,-0.1843,-0.1909,-0.2008,-0.2055,-0.2113,-0.2135,-0.2176,-0.2154,-0.2157,-0.2161,-0.2129,-0.211,-0.2107,-0.1958,-0.1908,-0.1996,-0.2045,-0.2045,-0.2045,-0.2045,-0.2045,0,-0.1337,-0.1448,-0.1516,-0.1555,-0.1687,-0.1747,-0.1817,-0.193,-0.1987,-0.2088,-0.2127,-0.2183,-0.2201,-0.219,-0.2152,-0.2162,-0.2125,-0.2128,-0.1965,-0.1954,-0.2081,-0.2077,-0.2121,-0.2121,-0.2121,-0.2121,-0.2121,0,-0.1314,-0.137,-0.1502,-0.1542,-0.1629,-0.1727,-0.1821,-0.1902,-0.2005,-0.2047,-0.2144,-0.2165,-0.2212,-0.2198,-0.2161,-0.2049,-0.2128,-0.1965,-0.1932,-0.2099,-0.2097,-0.208,-0.2076,-0.2119,-0.2119,-0.212,-0.212,0,-0.1238,-0.1327,-0.1411,-0.1559,-0.1605,-0.1663,-0.1802,-0.1853,-0.1971,-0.2023,-0.205,-0.2152,-0.2124,-0.213,-0.21,-0.2034,-0.1958,-0.1897,-0.2053,-0.2031,-0.1783,-0.1783,-0.1718,-0.1713,-0.1708,-0.1704,-0.1701,0,-0.1203,-0.1239,-0.1397,-0.1444,-0.1513,-0.1614,-0.1671,-0.1811,-0.1848,-0.198,-0.1972,-0.2018,-0.2049,-0.1884,-0.1923,-0.1832,-0.1811,-0.1774,-0.1804,-0.1768,-0.1744,-0.1751,-0.1756,-0.1693,-0.1692,-0.1691,-0.169,0,-0.1133,-0.1197,-0.127,-0.1364,-0.1435,-0.1503,-0.1586,-0.16,-0.1728,-0.1853,-0.1832,-0.1827,-0.1793,-0.1772,-0.1709,-0.1653,-0.1806,-0.1725,-0.1735,-0.1763,-0.1738,-0.1719,-0.173,-0.1673,-0.1676,-0.1677,-0.1678,0,-0.1076,-0.1102,-0.1196,-0.1264,-0.1343,-0.1356,-0.1425,-0.1452,-0.1507,-0.1642,-0.1624,-0.1673,-0.1755,-0.1675,-0.1616,-0.1549,-0.1536,-0.1502,-0.1524,-0.1542,-0.151,-0.1454,-0.1265,0,0,0,0,0,-0.1009,-0.1025,-0.1085,-0.1151,-0.1217,-0.1255,-0.1348,-0.1414,-0.1527,-0.1453,-0.1535,-0.1489,-0.1446,-0.1492,-0.1379,-0.1537,-0.1539,-0.1405,-0.1512,-0.1583,-0.1602,-0.1582,0,0,0,0,0,0,-0.0968,-0.1015,-0.1045,-0.1031,-0.1042,-0.1092,-0.1138,-0.1219,-0.1191,-0.1314,-0.1287,-0.1395,-0.1361,-0.146,-0.1344,-0.1351,-0.1387,-0.1445,-0.1441,-0.1573,-0.159,-0.1605,-0.159,0,0,0,0,0]},{"header":{"parameterUnit":"m.s-1","parameterCategory":2,"la1":30.2991,"la2":30.254,"lo1":-89.0895,"lo2":-89.0444,"dy":0.0017,"dx":0.0017,"nx":28,"ny":28,"refTime":"2024-07-19T21:00:00:Z","depth":"4","parameterNumber":3,"parameterNumberName":"V-component_of_CURRENTS"},"data":[0,0,0,0,0,0,0,0,0,0,0,0,0,0,0,0,0,0,0,0,0,0,0,0,0,0,0,0,0,0,0,0,0,0,0,0,0,0,0,0,0,0,0,0,0,0,0,0,0,0,0,0,0,0,0,0,0,0,-0.0138,-0.0138,0,-0.0103,-0.0103,-0.0102,-0.0081,-0.0081,-0.0081,-0.0081,-0.0015,-0.0013,-0.0012,0,0,0,0,0,0,0,0,0,0,0,0,0,-0.0145,-0.0145,-0.0138,-0.0138,-0.0138,-0.0103,-0.0103,-0.0102,-0.0081,-0.0081,-0.0081,-0.0081,-0.0015,-0.0013,-0.0011,0,0,0,0,0,0,0,0,0,0,0,0,0,-0.0129,-0.0145,-0.0138,-0.0123,-0.0121,-0.0103,-0.0103,-0.0102,-0.0081,-0.0081,-0.0081,-0.0081,-0.0016,-0.0014,-0.0011,0.0002,0,0,-0.0003,-0.0002,0,0,0,0,0,0,0,0,-0.013,-0.0129,-0.0126,-0.0124,-0.0122,-0.0097,-0.0081,-0.0066,-0.0081,-0.0096,-0.0081,-0.0081,-0.004,-0.0035,-0.0029,0.0005,0.0008,-0.0003,-0.0002,-0.0,0.0,0,0,0,0,0,0,0,-0.0131,-0.013,-0.0124,-0.0125,-0.0123,-0.0103,-0.0101,-0.0078,-0.0068,-0.0095,-0.0093,-0.009,-0.0038,-0.0031,-0.0027,0.0009,-0.0003,-0.0001,0.0001,0.0002,0.0049,0.0049,0,0,0,0,0,0,-0.0138,-0.0131,-0.0125,-0.0123,-0.0126,-0.0104,-0.0101,-0.0105,-0.0069,-0.0064,-0.009,-0.0089,-0.0036,-0.003,-0.0024,-0.0005,-0.0001,0.0002,0.0003,0.0049,0.0049,0.0049,0,0,0,0,0,0,-0.0139,-0.0139,-0.0127,-0.0126,-0.0123,-0.0104,-0.0108,-0.0104,-0.0097,-0.0066,-0.006,-0.0087,-0.0035,-0.0028,-0.0005,-0.0002,0.0003,0.0005,0.0049,0.0049,0.0049,0.0033,0,0,0,0,0,0,-0.0139,-0.0139,-0.0144,-0.0127,-0.0123,-0.0122,-0.0108,-0.0103,-0.0096,-0.0094,-0.0061,-0.0055,-0.0035,-0.0008,-0.0002,0.0001,0.0007,0.005,0.0049,0.0049,0.0034,0.0032,0.0031,0,0,0,0,0,-0.014,-0.0151,-0.0144,-0.0143,-0.0131,-0.0123,-0.0119,-0.0104,-0.0096,-0.0097,-0.0072,-0.0056,-0.0007,-0.0006,0.0001,0.0005,0.005,0.0049,0.0049,0.0035,0.0032,0.0031,0,0,0,0,0,0,-0.0154,-0.015,-0.0142,-0.0151,-0.0139,-0.0119,-0.012,-0.0107,-0.0088,-0.0086,-0.0054,-0.0046,-0.0031,-0.0011,-0.0011,0.0015,0.0022,0.0023,0.0008,0.0006,0.0005,0.0003,0.0009,0,0,0,0,0,-0.016,-0.017,-0.0155,-0.0161,-0.0158,-0.0138,-0.0132,-0.0122,-0.0103,-0.0095,-0.0072,-0.0047,-0.0027,-0.0009,0.0005,0.003,0.0063,0.0034,0.0032,0.0031,0.0034,0.0096,0.0101,0.0047,0.0047,0.0047,0,0,-0.0168,-0.0165,-0.0171,-0.0165,-0.0155,-0.0155,-0.0135,-0.0131,-0.0125,-0.009,-0.0077,-0.0056,-0.0026,-0.0007,0.0002,0.0014,0.0061,0.003,0.0029,0.0033,0.0096,0.0102,0.0107,0.0046,0.0046,0.0046,0,0,-0.0191,-0.0185,-0.0203,-0.0194,-0.0184,-0.017,-0.017,-0.0152,-0.014,-0.0124,-0.01,-0.007,-0.0045,-0.0013,0.0005,0.0006,0.0042,0.0,0.0006,0.0067,0.0072,0.0078,0.0119,0.0128,0.0011,0.0011,0.0011,0,-0.0199,-0.0217,-0.0204,-0.0212,-0.0207,-0.0179,-0.0188,-0.017,-0.0145,-0.0129,-0.0126,-0.0069,-0.0044,0.0,-0.0004,0.0005,0.0036,0.0013,0.0067,0.0073,0.0079,0.012,0.013,0.001,0.0011,0.0011,0.0011,0,-0.0232,-0.0242,-0.0249,-0.0252,-0.0243,-0.0246,-0.022,-0.0208,-0.0189,-0.0163,-0.0126,-0.0083,-0.0045,-0.0034,-0.0018,0.0032,0.0038,0.005,0.0075,0.0083,0.0125,0.0137,0.0009,0.001,0.001,0.001,0,0,-0.026,-0.0273,-0.0275,-0.0283,-0.0263,-0.0263,-0.0248,-0.0224,-0.0213,-0.0172,-0.0143,-0.0095,-0.0063,-0.0041,-0.0007,0.0052,0.0114,0.0065,0.0068,0.0111,0.0236,0.0218,0.0229,0.0138,0.014,0.0142,0.0246,0,-0.0289,-0.0322,-0.0313,-0.0332,-0.0343,-0.0309,-0.0299,-0.0268,-0.0236,-0.0201,-0.0128,-0.0098,-0.0067,-0.0049,0.0017,0.0084,0.0144,0.0084,0.0217,0.022,0.0209,0.0242,0.0148,0.0255,0.0258,0.0259,0.0261,0,-0.0322,-0.0339,-0.037,-0.0376,-0.0377,-0.0381,-0.0356,-0.0343,-0.0278,-0.025,-0.0184,-0.0133,-0.0042,-0.0024,0.0127,0.0086,0.0156,0.0216,0.0222,0.022,0.0224,0.0247,0.0281,0.028,0.0278,0.0277,0.0276,0,-0.0353,-0.0377,-0.0406,-0.0407,-0.0407,-0.0411,-0.0406,-0.0359,-0.0346,-0.0278,-0.0257,-0.014,-0.0083,0.003,0.0154,0.0142,0.0319,0.032,0.0376,0.0375,0.0366,0.0359,0.043,0.043,0.043,0.043,0.0429,0,-0.0381,-0.0405,-0.0429,-0.0444,-0.0475,-0.0454,-0.0466,-0.0444,-0.0399,-0.0371,-0.0288,-0.0225,-0.0066,0.0055,0.0159,0.0305,0.0331,0.0385,0.0408,0.0353,0.0344,0.0374,0.0366,0.0434,0.0433,0.0432,0.0431,0,-0.0406,-0.0423,-0.0462,-0.0483,-0.0494,-0.0515,-0.0522,-0.0522,-0.048,-0.0438,-0.0417,-0.0273,-0.0108,0.0045,0.0243,0.0307,0.0445,0.0488,0.0414,0.043,0.0455,0.0445,0.0559,0.0559,0.056,0.056,0.056,0,-0.0421,-0.0446,-0.05,-0.0532,-0.0547,-0.0576,-0.0593,-0.0567,-0.0555,-0.0453,-0.0427,-0.0264,-0.0153,0.0121,0.0271,0.0472,0.0492,0.0539,0.0502,0.0461,0.0473,0.0462,0.0452,0.0561,0.0561,0.0561,0.0561,0,-0.0446,-0.0471,-0.0506,-0.0575,-0.0614,-0.0649,-0.0664,-0.0657,-0.0602,-0.0566,-0.0406,-0.0254,-0.0064,0.0144,0.0297,0.0439,0.0493,0.0543,0.0543,0.0509,0.0465,0.0474,0.0463,0.0562,0.0562,0.0562,0.0562,0,-0.0464,-0.05,-0.0554,-0.061,-0.0668,-0.0699,-0.0702,-0.0657,-0.0629,-0.0506,-0.0437,-0.0227,-0.0086,0.013,0.0278,0.0407,0.043,0.0438,0.0443,0.0443,0.0369,0.0294,0.0371,0,0,0,0,0,-0.0472,-0.0519,-0.0583,-0.0649,-0.0705,-0.0728,-0.0738,-0.0724,-0.0662,-0.0554,-0.0492,-0.0304,-0.0046,0.0081,0.0211,0.0252,0.042,0.0401,0.0423,0.0569,0.0568,0.0498,0,0,0,0,0,0,-0.0485,-0.0546,-0.0584,-0.0664,-0.0708,-0.076,-0.0762,-0.072,-0.0645,-0.0556,-0.0402,-0.0305,-0.0045,-0.0112,0.021,0.0251,0.0271,0.0534,0.0535,0.057,0.0569,0.0568,0.0495,0,0,0,0,0]}]]